COSMOS 2268

导读 | 豆包AI

COSMOS 2268(宇宙2268)是独联体(CIS)发射的宇宙号系列卫星,该系列自1962年起由苏联/俄罗斯持续开展多任务发射,是全球规模最大的卫星家族,多数为军用用途。这颗卫星于1994年2月12日8时发射入轨,延续了宇宙号系列多用途混编的定位,承担相应空间任务,是该系列中一颗具备独立任务属性的人造卫星。

Basic Information
目录编号:
22999
目录名称:
COSMOS 2268
国际标识:
1994-011A
轨道中心:
EARTH
卫星名称:
COSMOS 2268
卫星全名:
--
卫星状态:
在轨 (已飞行11765 天)
发射日期:
1994-02-12 UTC
国别 :
俄罗斯(独联体) (CIS)
星等 :
--
Orbit Information
数据来源 国际轨道数据 AOE轨道数据
星历时间 2026-04-30T13:31:51+0800
11小时前
查看轨道信息
2026-04-25T23:00:00+0800
5天前
查看轨道信息
半长轴 7796.022km 7796.031km
偏心率 0.0009672 0.001012
轨道倾角 82.581° 82.581°
近地点辐角 315.956° 329.067°
升交点赤经 11.065° 13.997°
平近点角 166.679° 133.300°
近地点 1410.344km 1410.004km
远地点 1425.426km 1425.784km
周期 114.175分钟 114.175分钟
每日圈数 12.612268 12.612248
Detailed Information
使用方式:
暂无
2D Orbit Map
3D Orbit Map
Orbit Altitude Analysis Chart
Orbit Inclination Analysis Chart
Orbit Comprehensive Analysis Chart
View Comprehensive Chart